Regional Weather Roundup
Issued by NWS

Home | Current Version | Previous Version | Text Only | Print | Product List | Glossary Off
Versions: 1 2 3 4 5 6 7 8 9 10 11 12 13 14 15 16 17 18 19 20 21 22 23 24 25 26 27 28

000
ASUS45 KBOI 261410
RWRID

IDAHO REGIONAL WEATHER ROUNDUP
NATIONAL WEATHER SERVICE BOISE ID
800 AM MDT MON JUN 26 2017

NOTE: "FAIR" INDICATES FEW OR NO CLOUDS BELOW 12000 FEET
WITH NO SIGNIFICANT WEATHER AND/OR OBSTRUCTIONS TO VISIBILITY

IDZ012-014-261500-
SOUTHWEST IDAHO


CITY           SKY/WX    TMP DP  RH WIND       PRES   REMARKS
BOISE          SUNNY     71  45  39 SE13      29.96S
CALDWELL       SUNNY     67  54  63 N5        29.95S
MOUNTAIN HOME  SUNNY     70  47  44 E8        29.97F
$$

IDZ016-017-261500-
SOUTHCENTRAL IDAHO


CITY           SKY/WX    TMP DP  RH WIND       PRES   REMARKS
BURLEY         MOSUNNY   62  49  62 E8        30.07S
JEROME         SUNNY     70  43  37 NE14      30.06S
TWIN FALLS     SUNNY     65  47  52 SE6       30.06F
$$

IDZ019>023-261500-
SOUTHEAST IDAHO


CITY           SKY/WX    TMP DP  RH WIND       PRES   REMARKS
IDAHO FALLS    SUNNY     57  51  80 N7        30.17S
POCATELLO      SUNNY     62  48  60 NE3       30.13F
REXBURG        SUNNY     56  45  66 CALM      30.19R
$$

IDZ006-010-011-018-031-032-261500-
CENTRAL IDAHO MOUNTAINS


CITY           SKY/WX    TMP DP  RH WIND       PRES   REMARKS
MCCALL         MOSUNNY   54  45  71 CALM      30.11F
HAILEY         SUNNY     59  41  51 NW14      30.20S
STANLEY          N/A     49  40  71 E3        30.28F
SALMON           N/A    N/A N/A N/A MISG        N/A
CHALLIS        SUNNY     61  40  45 CALM      30.19S
$$

IDZ002-004-006-007-026-261500-
NORTHERN IDAHO


CITY           SKY/WX    TMP DP  RH WIND       PRES   REMARKS
LEWISTON       PTSUNNY   69  53  56 CALM      29.86R
LOWELL           N/A     58  53  84 N3        29.95F
COEUR D`ALENE  MOSUNNY   67  55  65 E3        29.90S
MULLAN PASS    MOSUNNY   68  37  32 VRB3      30.12F
$$




USA.gov is the U.S. government's official web portal to all federal, state and local government web resources and services.